EW8130 Weather Reports


time (UTC)temp
F
wind
direction
speed
knots
gust
knots
rain 1hr
in
rain 24hr
in
rain mn
in
humidity
%
barometer
mb
20260905074518 82 88 0.0 0.9 0.00 0.00 0.00 73 991.8
20260905073021 82 125 0.0 0.9 0.00 0.00 0.00 73 992.0
20260905071514 83 112 0.0 0.9 0.00 0.00 0.00 73 992.3
20260905070014 83 132 0.0 0.9 0.00 0.00 0.00 72 992.3
20260905064514 83 140 0.0 0.9 0.00 0.00 0.00 72 992.4
20260905063011 83 110 0.0 0.9 0.00 0.00 0.00 72 992.3
20260905061509 83 145 0.0 0.9 0.00 0.00 0.00 71 992.3
20260905060013 84 171 0.0 0.9 0.00 0.00 0.00 69 992.3
20260905054505 84 127 0.0 0.9 0.00 0.00 0.00 69 992.1
20260905053003 85 96 0.0 0.9 0.00 0.00 0.00 68 992.0
20260905051500 85 94 0.0 0.9 0.00 0.00 0.00 68 991.9
20260905050107 85 100 0.0 0.9 0.00 0.00 0.00 67 991.9
20260905044601 86 120 0.0 0.9 0.00 0.00 0.00 67 991.9
20260905043058 86 100 0.0 1.7 0.00 0.00 0.00 66 991.9
20260905041557 87 106 0.0 5.2 0.00 0.00 0.00 65 992.0
20260905040058 87 111 0.0 1.7 0.00 0.00 0.00 64 992.1
20260905034609 87 68 0.0 1.7 0.00 0.00 0.00 63 992.1
20260905033106 88 74 0.0 5.2 0.00 0.00 0.00 61 992.0
20260905031608 88 78 0.0 1.7 0.00 0.00 0.00 60 992.0
20260905030055 88 69 0.0 1.7 0.00 0.00 0.00 60 991.9
20260905024554 89 69 0.0 1.7 0.00 0.00 0.00 59 991.7
20260905023125 89 61 0.0 1.7 0.00 0.00 0.00 58 991.5
20260905021554 89 29 0.0 1.7 0.00 0.00 0.00 57 991.3
20260905020053 90 43 0.0 0.9 0.00 0.00 0.00 57 991.0
20260905014555 90 45 0.0 1.7 0.00 0.00 0.00 57 990.8
20260905013052 91 35 0.0 1.7 0.00 0.00 0.00 56 990.7
20260905011557 91 48 0.0 1.7 0.00 0.00 0.00 55 990.7
20260905010051 92 15 0.0 1.7 0.00 0.00 0.00 54 990.5
20260905004551 93 38 0.0 1.7 0.00 0.00 0.00 52 990.4
20260905003050 93 49 0.0 7.8 0.00 0.00 0.00 51 990.3
20260905001550 94 58 2.6 8.7 0.00 0.00 0.00 50 990.1
20260904234548 95 74 3.5 10.4 0.00 0.00 0.00 48 990.0
20260904233050 95 42 0.0 8.7 0.00 0.00 0.00 48 990.0
20260904231549 95 359 0.0 8.7 0.00 0.00 0.00 47 989.9
20260904230049 95 43 2.6 10.4 0.00 0.00 0.00 48 990.0
20260904224546 95 85 0.0 7.8 0.00 0.00 0.00 49 990.1
20260904223045 95 359 0.0 10.4 0.00 0.00 0.00 49 990.2
20260904221545 95 42 1.7 7.8 0.00 0.00 0.00 50 990.1
20260904220107 96 41 0.9 8.7 0.00 0.00 0.00 49 990.2
20260904214543 97 36 1.7 9.6 0.00 0.00 0.00 49 990.5
20260904213039 97 116 0.0 4.3 0.00 0.00 0.00 49 990.5
20260904211549 96 53 1.7 6.1 0.00 0.00 0.00 49 990.6
20260904210039 96 77 0.9 8.7 0.00 0.00 0.00 49 990.7
20260904204545 96 262 0.0 7.0 0.00 0.00 0.00 50 990.9
20260904203042 96 127 0.0 8.7 0.00 0.00 0.00 50 991.0
20260904201534 96 36 1.7 8.7 0.00 0.00 0.00 48 991.2
20260904200036 98 38 0.0 4.3 0.00 0.00 0.00 46 991.5
20260904194545 98 359 0.0 0.9 0.00 0.00 0.00 47 991.7
20260904193023 97 86 0.0 2.6 0.00 0.00 0.00 48 991.9
20260904191536 95 38 0.0 1.7 0.00 0.00 0.00 50 992.0
20260904190019 95 62 0.0 2.6 0.00 0.00 0.00 52 992.2
20260904184518 94 54 0.0 1.7 0.00 0.00 0.00 52 992.3
20260904183017 95 61 5.2 7.8 0.00 0.00 0.00 53 992.5
20260904181515 94 122 0.0 2.6 0.00 0.00 0.00 53 992.7
20260904180012 94 173 0.0 1.7 0.00 0.00 0.00 55 993.0
20260904174512 93 91 0.0 4.3 0.00 0.00 0.00 55 993.2
20260904173010 93 102 0.0 3.5 0.00 0.00 0.00 55 993.4
20260904171506 92 106 3.5 8.7 0.00 0.00 0.00 56 993.5
20260904170005 92 43 3.5 8.7 0.00 0.00 0.00 55 993.7
20260904164503 91 50 1.7 7.0 0.00 0.00 0.00 59 993.7
20260904163107 90 175 0.0 6.1 0.00 0.00 0.00 59 993.8
20260904161558 90 86 0.0 0.9 0.00 0.00 0.00 62 993.7
20260904160057 88 84 0.0 2.6 0.00 0.00 0.00 66 993.9
20260904154549 87 119 0.0 2.6 0.00 0.00 0.00 71 993.8
20260904153050 86 143 0.0 2.6 0.00 0.00 0.00 73 993.7
20260904151543 85 74 3.5 8.7 0.00 0.00 0.00 76 993.6
20260904150049 84 52 0.0 1.7 0.00 0.00 0.00 78 993.6
20260904144538 83 102 0.9 7.8 0.00 0.00 0.00 82 993.7
20260904143038 82 76 0.0 1.7 0.00 0.00 0.00 84 993.8
20260904141532 81 95 0.0 3.5 0.00 0.00 0.00 85 993.7
20260904140035 81 67 0.0 1.7 0.00 0.00 0.00 87 993.6
20260904134523 79 66 0.0 4.3 0.00 0.00 0.00 89 993.5
20260904133022 78 53 0.0 2.6 0.00 0.00 0.00 90 993.4
20260904131521 78 62 0.0 5.2 0.00 0.00 0.00 91 993.3
20260904130020 77 41 0.0 6.1 0.00 0.00 0.00 92 993.1
20260904124517 76 30 0.0 1.7 0.00 0.00 0.00 93 993.0
20260904123017 76 41 0.0 1.7 0.00 0.00 0.00 93 992.9
20260904121516 76 37 0.0 5.2 0.00 0.00 0.00 93 992.8
20260904120014 76 29 0.0 1.7 0.00 0.00 0.00 92 992.7
20260904114513 76 39 0.0 1.7 0.00 0.00 0.00 92 992.7
20260904113018 76 50 0.0 4.3 0.00 0.00 0.00 91 992.3
20260904111511 75 33 0.0 1.7 0.00 0.00 0.00 91 992.3
20260904110021 75 44 0.0 1.7 0.00 0.00 0.00 90 992.4
20260904104508 75 28 0.0 1.7 0.00 0.00 0.00 90 992.3
20260904103006 76 359 0.0 0.9 0.00 0.00 0.00 89 992.2
20260904101505 76 119 0.0 1.7 0.00 0.00 0.00 88 992.1
20260904100005 76 40 0.0 1.7 0.00 0.00 0.00 87 991.9
20260904094503 76 39 0.0 4.3 0.00 0.00 0.00 87 991.9
20260904093002 76 44 0.0 1.7 0.00 0.00 0.00 86 992.0
20260904091501 76 59 0.0 1.7 0.00 0.00 0.00 85 991.9
20260904090000 76 38 0.0 0.9 0.00 0.00 0.00 85 992.0
20260904084601 76 36 0.0 2.6 0.00 0.00 0.00 84 991.9
20260904083058 77 52 0.0 0.9 0.00 0.00 0.00 84 991.9
20260904081558 77 39 0.0 1.7 0.00 0.00 0.00 83 991.9